Time,TemperatureF,DewpointF,PressureIn,WindDirection,WindDirectionDegrees,WindSpeedMPH,WindSpeedGustMPH,Humidity,HourlyPrecipIn,Conditions,Clouds,dailyrainin,SolarRadiationWatts/m^2,SoftwareType,DateUTC
2013-01-22 00:02:00,36.0,18.0,30.20,West,279,4.0,5.0,47,-99.99,,,-99.99,0.000000,,2013-01-22 07:02:00,
2013-01-22 00:12:00,38.0,15.0,30.20,WSW,245,3.0,4.0,38,-99.99,,,-99.99,0.000000,,2013-01-22 07:12:00,
2013-01-22 00:22:00,38.0,15.0,30.20,WSW,245,3.0,4.0,38,-99.99,,,-99.99,0.000000,,2013-01-22 07:22:00,
2013-01-22 00:32:00,39.0,13.0,30.20,SW,227,2.0,4.0,34,-99.99,,,-99.99,0.000000,,2013-01-22 07:32:00,
2013-01-22 00:42:00,37.0,13.0,30.20,West,269,2.0,3.0,36,-99.99,,,-99.99,0.000000,,2013-01-22 07:42:00,
2013-01-22 00:53:00,37.0,13.0,30.20,West,269,2.0,3.0,36,-99.99,,,-99.99,0.000000,,2013-01-22 07:53:00,
2013-01-22 01:02:00,37.0,13.0,30.20,West,269,2.0,3.0,36,-99.99,,,-99.99,0.000000,,2013-01-22 08:02:00,
2013-01-22 01:12:00,38.0,14.0,30.20,WNW,295,3.0,5.0,37,-99.99,,,-99.99,0.000000,,2013-01-22 08:12:00,
2013-01-22 01:22:00,38.0,14.0,30.20,WNW,295,3.0,5.0,37,-99.99,,,-99.99,0.000000,,2013-01-22 08:22:00,
2013-01-22 01:32:00,36.0,15.0,30.20,West,276,4.0,5.0,41,-99.99,,,-99.99,0.000000,,2013-01-22 08:32:00,
2013-01-22 01:42:00,37.0,16.0,30.20,SW,228,2.0,4.0,42,-99.99,,,-99.99,0.000000,,2013-01-22 08:42:00,
2013-01-22 01:52:00,37.0,16.0,30.20,SW,228,2.0,4.0,42,-99.99,,,-99.99,0.000000,,2013-01-22 08:52:00,
2013-01-22 02:02:00,37.0,15.0,30.20,East,98,1.0,3.0,40,-99.99,,,-99.99,0.000000,,2013-01-22 09:02:00,
2013-01-22 02:12:00,36.0,16.0,30.20,NNW,327,3.0,6.0,43,-99.99,,,-99.99,0.000000,,2013-01-22 09:12:00,
2013-01-22 02:22:00,36.0,16.0,30.20,NNW,327,3.0,6.0,43,-99.99,,,-99.99,0.000000,,2013-01-22 09:22:00,
2013-01-22 02:32:00,38.0,14.0,30.20,SSW,197,5.0,6.0,37,-99.99,,,-99.99,0.000000,,2013-01-22 09:32:00,
2013-01-22 02:42:00,41.0,13.0,30.20,SSW,195,3.0,5.0,30,-99.99,,,-99.99,0.000000,,2013-01-22 09:42:00,
2013-01-22 02:52:00,41.0,13.0,30.20,SSW,195,3.0,5.0,30,-99.99,,,-99.99,0.000000,,2013-01-22 09:52:00,
2013-01-22 03:02:00,42.0,12.0,30.20,SSW,198,5.0,7.0,29,-99.99,,,-99.99,0.000000,,2013-01-22 10:02:00,
2013-01-22 03:12:00,42.0,12.0,30.20,SSW,194,3.0,5.0,27,-99.99,,,-99.99,0.000000,,2013-01-22 10:12:00,
2013-01-22 03:22:00,42.0,12.0,30.20,SSW,194,3.0,5.0,27,-99.99,,,-99.99,0.000000,,2013-01-22 10:22:00,
2013-01-22 03:32:00,37.0,13.0,30.20,WSW,247,3.0,4.0,36,-99.99,,,-99.99,0.000000,,2013-01-22 10:32:00,
2013-01-22 03:42:00,38.0,15.0,30.20,WNW,301,4.0,5.0,39,-99.99,,,-99.99,0.000000,,2013-01-22 10:42:00,
2013-01-22 03:52:00,36.0,16.0,30.20,West,268,3.0,7.0,43,-99.99,,,-99.99,0.000000,,2013-01-22 10:52:00,
2013-01-22 04:02:00,36.0,16.0,30.20,West,268,3.0,7.0,43,-99.99,,,-99.99,0.000000,,2013-01-22 11:02:00,
2013-01-22 04:12:00,39.0,14.0,30.20,ESE,121,2.0,4.0,35,-99.99,,,-99.99,0.000000,,2013-01-22 11:12:00,
2013-01-22 04:22:00,39.0,14.0,30.20,ESE,121,2.0,4.0,35,-99.99,,,-99.99,0.000000,,2013-01-22 11:22:00,
2013-01-22 04:33:00,39.0,15.0,30.20,North,359,5.0,7.0,37,-99.99,,,-99.99,0.000000,,2013-01-22 11:33:00,
2013-01-22 04:43:00,39.0,15.0,30.20,North,359,5.0,7.0,37,-99.99,,,-99.99,0.000000,,2013-01-22 11:43:00,
2013-01-22 04:53:00,39.0,15.0,30.20,North,359,5.0,7.0,37,-99.99,,,-99.99,0.000000,,2013-01-22 11:53:00,
2013-01-22 05:03:00,36.0,13.0,30.20,WSW,256,3.0,5.0,37,-99.99,,,-99.99,0.000000,,2013-01-22 12:03:00,
2013-01-22 05:12:00,36.0,13.0,30.20,WSW,256,3.0,5.0,37,-99.99,,,-99.99,0.000000,,2013-01-22 12:12:00,
2013-01-22 05:23:00,36.0,13.0,30.20,WSW,256,3.0,5.0,37,-99.99,,,-99.99,0.000000,,2013-01-22 12:23:00,
2013-01-22 05:33:00,37.0,13.0,30.21,East,83,2.0,3.0,36,-99.99,,,-99.99,0.000000,,2013-01-22 12:33:00,
2013-01-22 05:43:00,37.0,13.0,30.21,SW,221,3.0,4.0,36,-99.99,,,-99.99,0.000000,,2013-01-22 12:43:00,
2013-01-22 05:53:00,37.0,13.0,30.21,SW,221,3.0,4.0,36,-99.99,,,-99.99,0.000000,,2013-01-22 12:53:00,
2013-01-22 06:03:00,37.0,13.0,30.21,SW,220,3.0,4.0,36,-99.99,,,-99.99,0.000000,,2013-01-22 13:03:00,
2013-01-22 06:23:00,35.0,14.0,30.21,SW,233,3.0,5.0,42,-99.99,,,-99.99,0.000000,,2013-01-22 13:23:00,
2013-01-22 06:33:00,32.0,15.0,30.21,West,266,5.0,6.0,49,-99.99,,,-99.99,0.000000,,2013-01-22 13:33:00,
2013-01-22 06:43:00,33.0,16.0,30.21,NW,305,4.0,9.0,47,-99.99,,,-99.99,0.000000,,2013-01-22 13:43:00,
2013-01-22 06:53:00,35.0,16.0,30.22,South,186,2.0,4.0,45,-99.99,,,-99.99,0.000000,,2013-01-22 13:53:00,
2013-01-22 07:03:00,35.0,16.0,30.22,South,186,2.0,4.0,45,-99.99,,,-99.99,0.000000,,2013-01-22 14:03:00,
2013-01-22 07:13:00,35.0,16.0,30.24,North,355,1.0,5.0,44,-99.99,,,-99.99,0.000000,,2013-01-22 14:13:00,
2013-01-22 07:23:00,35.0,16.0,30.24,North,355,1.0,5.0,44,-99.99,,,-99.99,0.000000,,2013-01-22 14:23:00,
2013-01-22 07:34:00,31.0,16.0,30.24,West,264,4.0,6.0,52,-99.99,,,-99.99,1.390000,,2013-01-22 14:34:00,
2013-01-22 07:43:00,33.0,15.0,30.24,WSW,252,4.0,7.0,46,-99.99,,,-99.99,7.670000,,2013-01-22 14:43:00,
2013-01-22 07:54:00,33.0,15.0,30.24,WSW,252,4.0,7.0,46,-99.99,,,-99.99,7.670000,,2013-01-22 14:54:00,
2013-01-22 08:03:00,35.0,14.0,30.25,SSW,205,4.0,5.0,40,-99.99,,,-99.99,36.959999,,2013-01-22 15:03:00,
2013-01-22 08:13:00,39.0,13.0,30.25,SSW,194,3.0,5.0,33,-99.99,,,-99.99,87.860001,,2013-01-22 15:13:00,
2013-01-22 08:23:00,39.0,13.0,30.25,SSW,194,3.0,5.0,33,-99.99,,,-99.99,87.860001,,2013-01-22 15:23:00,
2013-01-22 08:34:00,42.0,14.0,30.25,South,175,4.0,6.0,31,-99.99,,,-99.99,145.050003,,2013-01-22 15:34:00,
2013-01-22 08:43:00,47.0,12.0,30.25,SSE,151,4.0,6.0,24,-99.99,,,-99.99,194.559998,,2013-01-22 15:43:00,
2013-01-22 08:53:00,47.0,12.0,30.25,SSE,151,4.0,6.0,24,-99.99,,,-99.99,194.559998,,2013-01-22 15:53:00,
2013-01-22 09:03:00,49.0,10.0,30.25,ESE,122,3.0,5.0,20,-99.99,,,-99.99,243.369995,,2013-01-22 16:03:00,
2013-01-22 09:13:00,49.0,11.0,30.25,East,80,2.0,4.0,20,-99.99,,,-99.99,292.179993,,2013-01-22 16:13:00,
2013-01-22 09:23:00,49.0,11.0,30.25,East,80,2.0,4.0,20,-99.99,,,-99.99,292.179993,,2013-01-22 16:23:00,
2013-01-22 09:33:00,50.0,11.0,30.26,ENE,59,2.0,2.0,20,-99.99,,,-99.99,340.299988,,2013-01-22 16:33:00,
2013-01-22 09:43:00,49.0,12.0,30.26,East,81,3.0,5.0,21,-99.99,,,-99.99,387.720001,,2013-01-22 16:43:00,
2013-01-22 09:54:00,47.0,12.0,30.26,East,92,4.0,6.0,23,-99.99,,,-99.99,433.040009,,2013-01-22 16:54:00,
2013-01-22 10:03:00,47.0,12.0,30.26,East,92,4.0,6.0,23,-99.99,,,-99.99,433.040009,,2013-01-22 17:03:00,
2013-01-22 10:13:00,48.0,12.0,30.27,East,94,4.0,6.0,22,-99.99,,,-99.99,473.489990,,2013-01-22 17:13:00,
2013-01-22 10:23:00,48.0,12.0,30.27,East,94,4.0,6.0,22,-99.99,,,-99.99,473.489990,,2013-01-22 17:23:00,
2013-01-22 10:34:00,50.0,13.0,30.28,East,97,3.0,5.0,22,-99.99,,,-99.99,509.750000,,2013-01-22 17:34:00,
2013-01-22 10:43:00,50.0,12.0,30.28,East,92,4.0,6.0,21,-99.99,,,-99.99,544.619995,,2013-01-22 17:43:00,
2013-01-22 10:54:00,50.0,12.0,30.28,East,92,4.0,6.0,21,-99.99,,,-99.99,544.619995,,2013-01-22 17:54:00,
2013-01-22 11:03:00,50.0,11.0,30.28,East,86,5.0,7.0,20,-99.99,,,-99.99,576.690002,,2013-01-22 18:03:00,
2013-01-22 11:13:00,51.0,10.0,30.28,ENE,78,4.0,6.0,19,-99.99,,,-99.99,603.190002,,2013-01-22 18:13:00,
2013-01-22 11:23:00,51.0,10.0,30.28,ENE,78,4.0,6.0,19,-99.99,,,-99.99,603.190002,,2013-01-22 18:23:00,
2013-01-22 11:33:00,51.0,10.0,30.28,ENE,77,4.0,7.0,18,-99.99,,,-99.99,627.599976,,2013-01-22 18:33:00,
2013-01-22 11:43:00,52.0,10.0,30.28,East,79,4.0,7.0,18,-99.99,,,-99.99,647.820007,,2013-01-22 18:43:00,
2013-01-22 11:54:00,52.0,10.0,30.28,East,79,4.0,7.0,18,-99.99,,,-99.99,647.820007,,2013-01-22 18:54:00,
2013-01-22 12:03:00,52.0,10.0,30.28,East,79,4.0,7.0,18,-99.99,,,-99.99,647.820007,,2013-01-22 19:03:00,
2013-01-22 12:13:00,52.0,10.0,30.28,East,79,4.0,7.0,18,-99.99,,,-99.99,647.820007,,2013-01-22 19:13:00,
2013-01-22 12:33:00,56.0,9.0,30.25,East,88,3.0,6.0,14,-99.99,,,-99.99,682.690002,,2013-01-22 19:33:00,
2013-01-22 12:43:00,56.0,9.0,30.25,East,88,3.0,6.0,14,-99.99,,,-99.99,682.690002,,2013-01-22 19:43:00,
2013-01-22 12:54:00,56.0,9.0,30.25,East,88,3.0,6.0,14,-99.99,,,-99.99,682.690002,,2013-01-22 19:54:00,
2013-01-22 13:03:00,58.0,9.0,30.24,ENE,68,3.0,5.0,14,-99.99,,,-99.99,681.289978,,2013-01-22 20:03:00,
2013-01-22 13:13:00,59.0,9.0,30.23,ENE,74,3.0,6.0,13,-99.99,,,-99.99,676.409973,,2013-01-22 20:13:00,
2013-01-22 13:23:00,59.0,9.0,30.23,ENE,74,3.0,6.0,13,-99.99,,,-99.99,676.409973,,2013-01-22 20:23:00,
2013-01-22 13:33:00,59.0,9.0,30.23,ENE,74,3.0,6.0,13,-99.99,,,-99.99,676.409973,,2013-01-22 20:33:00,
2013-01-22 13:43:00,59.0,9.0,30.23,ENE,74,3.0,6.0,13,-99.99,,,-99.99,676.409973,,2013-01-22 20:43:00,
2013-01-22 14:03:00,61.0,10.0,30.21,East,101,5.0,11.0,12,-99.99,,,-99.99,638.760010,,2013-01-22 21:03:00,
2013-01-22 14:13:00,62.0,10.0,30.20,SE,143,4.0,9.0,12,-99.99,,,-99.99,617.840027,,2013-01-22 21:13:00,
2013-01-22 14:23:00,62.0,10.0,30.20,SE,143,4.0,9.0,12,-99.99,,,-99.99,617.840027,,2013-01-22 21:23:00,
2013-01-22 14:33:00,63.0,10.0,30.20,ESE,115,4.0,7.0,11,-99.99,,,-99.99,590.640015,,2013-01-22 21:33:00,
2013-01-22 14:43:00,63.0,10.0,30.20,East,101,5.0,9.0,11,-99.99,,,-99.99,564.140015,,2013-01-22 21:43:00,
2013-01-22 14:53:00,63.0,10.0,30.20,East,101,5.0,9.0,11,-99.99,,,-99.99,564.140015,,2013-01-22 21:53:00,
2013-01-22 15:03:00,65.0,10.0,30.20,ESE,116,3.0,7.0,11,-99.99,,,-99.99,530.669983,,2013-01-22 22:03:00,
2013-01-22 15:12:00,65.0,10.0,30.20,East,91,3.0,9.0,11,-99.99,,,-99.99,496.500000,,2013-01-22 22:12:00,
2013-01-22 15:22:00,65.0,10.0,30.20,East,91,3.0,9.0,11,-99.99,,,-99.99,496.500000,,2013-01-22 22:22:00,
2013-01-22 15:32:00,65.0,10.0,30.19,East,97,6.0,9.0,11,-99.99,,,-99.99,459.540009,,2013-01-22 22:32:00,
2013-01-22 15:43:00,65.0,10.0,30.19,East,86,4.0,7.0,11,-99.99,,,-99.99,419.790009,,2013-01-22 22:43:00,
2013-01-22 15:53:00,65.0,10.0,30.19,East,86,4.0,7.0,11,-99.99,,,-99.99,419.790009,,2013-01-22 22:53:00,
2013-01-22 16:03:00,65.0,10.0,30.19,SSE,150,4.0,10.0,11,-99.99,,,-99.99,375.170013,,2013-01-22 23:03:00,
2013-01-22 16:12:00,65.0,11.0,30.18,SSE,148,8.0,11.0,11,-99.99,,,-99.99,331.230011,,2013-01-22 23:12:00,
2013-01-22 16:24:00,65.0,11.0,30.18,SSE,148,8.0,11.0,11,-99.99,,,-99.99,331.230011,,2013-01-22 23:24:00,
2013-01-22 16:33:00,65.0,11.0,30.18,SE,145,6.0,11.0,11,-99.99,,,-99.99,285.209991,,2013-01-22 23:33:00,
2013-01-22 16:43:00,65.0,11.0,30.18,SSE,147,5.0,9.0,12,-99.99,,,-99.99,238.490005,,2013-01-22 23:43:00,
2013-01-22 16:53:00,65.0,11.0,30.18,SSE,147,5.0,9.0,12,-99.99,,,-99.99,238.490005,,2013-01-22 23:53:00,
2013-01-22 17:03:00,64.0,11.0,30.18,SE,143,4.0,6.0,12,-99.99,,,-99.99,187.580002,,2013-01-23 00:03:00,
2013-01-22 17:12:00,60.0,16.0,30.18,WSW,252,3.0,5.0,17,-99.99,,,-99.99,21.620001,,2013-01-23 00:12:00,
2013-01-22 17:22:00,60.0,16.0,30.18,WSW,252,3.0,5.0,17,-99.99,,,-99.99,21.620001,,2013-01-23 00:22:00,
2013-01-22 17:33:00,54.0,18.0,30.18,West,270,3.0,5.0,23,-99.99,,,-99.99,15.340000,,2013-01-23 00:33:00,
2013-01-22 17:43:00,54.0,18.0,30.18,West,270,3.0,5.0,23,-99.99,,,-99.99,15.340000,,2013-01-23 00:43:00,
2013-01-22 17:52:00,54.0,18.0,30.18,West,270,3.0,5.0,23,-99.99,,,-99.99,15.340000,,2013-01-23 00:52:00,
2013-01-22 18:03:00,51.0,13.0,30.18,West,280,5.0,7.0,21,-99.99,,,-99.99,7.670000,,2013-01-23 01:03:00,
2013-01-22 18:13:00,51.0,13.0,30.18,West,280,5.0,7.0,21,-99.99,,,-99.99,7.670000,,2013-01-23 01:13:00,
2013-01-22 18:23:00,51.0,13.0,30.18,West,280,5.0,7.0,21,-99.99,,,-99.99,7.670000,,2013-01-23 01:23:00,
2013-01-22 18:33:00,49.0,11.0,30.18,WNW,296,3.0,5.0,20,-99.99,,,-99.99,0.000000,,2013-01-23 01:33:00,
2013-01-22 18:43:00,47.0,12.0,30.19,WNW,292,5.0,8.0,23,-99.99,,,-99.99,0.000000,,2013-01-23 01:43:00,
2013-01-22 18:53:00,47.0,12.0,30.19,WNW,292,5.0,8.0,23,-99.99,,,-99.99,0.000000,,2013-01-23 01:53:00,
2013-01-22 19:03:00,48.0,13.0,30.19,West,265,5.0,7.0,23,-99.99,,,-99.99,0.000000,,2013-01-23 02:03:00,
2013-01-22 19:12:00,48.0,13.0,30.19,West,265,5.0,7.0,23,-99.99,,,-99.99,0.000000,,2013-01-23 02:12:00,
2013-01-22 19:23:00,48.0,13.0,30.19,West,265,5.0,7.0,23,-99.99,,,-99.99,0.000000,,2013-01-23 02:23:00,
2013-01-22 19:33:00,47.0,12.0,30.19,West,262,4.0,6.0,23,-99.99,,,-99.99,0.000000,,2013-01-23 02:33:00,
2013-01-22 19:43:00,47.0,12.0,30.19,West,262,4.0,6.0,23,-99.99,,,-99.99,0.000000,,2013-01-23 02:43:00,
2013-01-22 19:53:00,47.0,12.0,30.19,West,262,4.0,6.0,23,-99.99,,,-99.99,0.000000,,2013-01-23 02:53:00,
2013-01-22 20:03:00,46.0,9.0,30.20,WNW,292,5.0,7.0,21,-99.99,,,-99.99,0.000000,,2013-01-23 03:03:00,
2013-01-22 20:13:00,45.0,13.0,30.20,WNW,282,5.0,11.0,27,-99.99,,,-99.99,0.000000,,2013-01-23 03:13:00,
2013-01-22 20:23:00,45.0,13.0,30.20,WNW,282,5.0,11.0,27,-99.99,,,-99.99,0.000000,,2013-01-23 03:23:00,
2013-01-22 20:33:00,45.0,12.0,30.20,West,268,5.0,7.0,25,-99.99,,,-99.99,0.000000,,2013-01-23 03:33:00,
2013-01-22 20:42:00,45.0,14.0,30.21,WSW,252,3.0,6.0,28,-99.99,,,-99.99,0.000000,,2013-01-23 03:42:00,
2013-01-22 20:53:00,45.0,14.0,30.21,WSW,252,3.0,6.0,28,-99.99,,,-99.99,0.000000,,2013-01-23 03:53:00,
2013-01-22 21:03:00,45.0,10.0,30.21,NW,308,3.0,7.0,23,-99.99,,,-99.99,0.000000,,2013-01-23 04:03:00,
2013-01-22 21:12:00,47.0,9.0,30.22,West,281,3.0,5.0,21,-99.99,,,-99.99,0.000000,,2013-01-23 04:12:00,
2013-01-22 21:22:00,47.0,9.0,30.22,West,281,3.0,5.0,21,-99.99,,,-99.99,0.000000,,2013-01-23 04:22:00,
2013-01-22 21:32:00,46.0,9.0,30.22,NW,305,4.0,7.0,21,-99.99,,,-99.99,0.000000,,2013-01-23 04:32:00,
2013-01-22 21:43:00,45.0,9.0,30.23,NW,309,4.0,6.0,22,-99.99,,,-99.99,0.000000,,2013-01-23 04:43:00,
2013-01-22 21:53:00,45.0,9.0,30.23,NW,309,4.0,6.0,22,-99.99,,,-99.99,0.000000,,2013-01-23 04:53:00,
2013-01-22 22:03:00,45.0,11.0,30.23,NW,326,4.0,6.0,24,-99.99,,,-99.99,0.000000,,2013-01-23 05:03:00,
2013-01-22 22:12:00,45.0,12.0,30.24,WSW,258,2.0,3.0,25,-99.99,,,-99.99,0.000000,,2013-01-23 05:12:00,
2013-01-22 22:22:00,45.0,12.0,30.24,WSW,258,2.0,3.0,25,-99.99,,,-99.99,0.000000,,2013-01-23 05:22:00,
2013-01-22 22:33:00,45.0,11.0,30.24,SSW,204,1.0,2.0,24,-99.99,,,-99.99,0.000000,,2013-01-23 05:33:00,
2013-01-22 22:43:00,46.0,13.0,30.24,SW,226,1.0,5.0,26,-99.99,,,-99.99,0.000000,,2013-01-23 05:43:00,
2013-01-22 22:53:00,46.0,13.0,30.24,SW,226,1.0,5.0,26,-99.99,,,-99.99,0.000000,,2013-01-23 05:53:00,
2013-01-22 23:02:00,42.0,14.0,30.24,WSW,254,5.0,6.0,31,-99.99,,,-99.99,0.000000,,2013-01-23 06:02:00,
2013-01-22 23:12:00,42.0,13.0,30.24,West,279,5.0,7.0,29,-99.99,,,-99.99,0.000000,,2013-01-23 06:12:00,
2013-01-22 23:22:00,42.0,13.0,30.24,West,279,5.0,7.0,29,-99.99,,,-99.99,0.000000,,2013-01-23 06:22:00,
2013-01-22 23:32:00,42.0,12.0,30.24,West,277,4.0,7.0,28,-99.99,,,-99.99,0.000000,,2013-01-23 06:32:00,
2013-01-22 23:42:00,44.0,11.0,30.24,WNW,295,3.0,5.0,26,-99.99,,,-99.99,0.000000,,2013-01-23 06:42:00,
2013-01-22 23:53:00,44.0,11.0,30.24,WNW,295,3.0,5.0,26,-99.99,,,-99.99,0.000000,,2013-01-23 06:53:00,